Fort Knox, KY

10:47 PM EDT on October 23, 2017 (GMT -0400)
Godman Army Air Field

Weather History for KFTK - August, 2013

Change the Weather History Date:

Tuesday, August 6, 2013

  Actual Average Record
Temperature  
Mean Temperature 76 °F -  
Max Temperature 82 °F 83 °F 97 °F (2007)
Min Temperature 70 °F 63 °F 57 °F (2004)
Cooling Degree Days 11    
Growing Degree Days 26 (Base 50)    
Moisture  
Dew Point 70 °F    
Average Humidity 82    
Maximum Humidity 100    
Minimum Humidity 68    
Precipitation  
Precipitation 0.00 in - - ()
Sea Level Pressure  
Sea Level Pressure 29.94 in    
Wind  
Wind Speed 3 mph (South)    
Max Wind Speed 8 mph    
Max Gust Speed -    
Visibility 9 miles    
Events Rain    
Averages and records for this station are not official NWS values.
T = Trace of Precipitation, MM = Missing Value Source: NWS Daily Summary

Daily Weather History Graph

Daily Weather History Graph

Search for Another Location

Airport or City:

Trip Planner

Search our weather history database for the weather conditions in past years. The results will help you decide how hot, cold, wet, or windy it might be!

Date:

Astronomy

Aug. 06, 2013 Rise Set
Actual Time 6:51 AM EDT 8:47 PM EDT
Civil Twilight 6:22 AM EDT 9:15 PM EDT
Nautical Twilight 5:47 AM EDT 9:50 PM EDT
Astronomical Twilight 5:10 AM EDT 10:28 PM EDT
Moon 6:41 AM EDT (8/6) 8:23 PM EDT (8/6)
Length of Visible Light 14h 53m
Length of Day
13h 55m
Waning Crescent, 0% of the Moon is Illuminated
Aug 6
Waning Crescent
Aug 6
New
Aug 14
First Quarter
Aug 20
Full
Aug 28
Last Quarter

Hourly Weather History & Observations

Time (EDT) Temp. Heat Index Dew Point Humidity Pressure Visibility Wind Dir Wind Speed Gust Speed Precip Events Conditions
12:58 AM 72.1 °F - 63.1 °F 73% 29.95 in 10.0 mi SSW 2.3 mph - N/A   Overcast
1:58 AM 71.1 °F - 64.8 °F 80% 29.94 in 10.0 mi Calm Calm - N/A   Overcast
2:58 AM 70.5 °F - 64.4 °F 81% 29.94 in 10.0 mi Calm Calm - N/A   Overcast
3:58 AM 70.7 °F - 65.5 °F 83% 29.94 in 10.0 mi SSW 2.3 mph - N/A   Overcast
4:58 AM 70.9 °F - 65.5 °F 83% 29.91 in 10.0 mi East 2.3 mph - N/A   Overcast
5:58 AM 70.2 °F - 65.3 °F 85% 29.92 in 10.0 mi East 4.6 mph - N/A   Overcast
6:58 AM 70.5 °F - 64.6 °F 81% 29.94 in 10.0 mi East 4.6 mph - N/A   Overcast
7:58 AM 71.1 °F - 64.8 °F 80% 29.95 in 10.0 mi ESE 3.5 mph - N/A   Overcast
8:38 AM 71.6 °F - 64.4 °F 78% 29.96 in 10.0 mi ESE 4.6 mph - N/A   Mostly Cloudy
8:58 AM 73.0 °F - 65.1 °F 76% 29.95 in 10.0 mi East 4.6 mph - N/A   Partly Cloudy
9:55 AM 74.8 °F - 66.2 °F 74% 29.95 in 10.0 mi ESE 3.5 mph - N/A   Mostly Cloudy
10:55 AM 75.4 °F - 66.7 °F 74% 29.96 in 10.0 mi Calm Calm - N/A   Overcast
11:55 AM 78.6 °F - 67.1 °F 68% 29.95 in 10.0 mi Variable 5.8 mph - N/A   Mostly Cloudy
12:55 PM 79.3 °F - 68.4 °F 69% 29.95 in 10.0 mi Variable 5.8 mph - N/A   Overcast
1:55 PM 79.5 °F - 70.3 °F 73% 29.95 in 10.0 mi South 5.8 mph - N/A   Overcast
1:58 PM 79.5 °F - 70.3 °F 73% 29.95 in 10.0 mi South 6.9 mph - N/A   Overcast
2:03 PM 78.8 °F - 71.6 °F 78% 29.96 in 10.0 mi South 5.8 mph - N/A   Overcast
2:58 PM 81.0 °F 85.1 °F 71.6 °F 73% 29.94 in 10.0 mi SSW 5.8 mph - N/A   Mostly Cloudy
3:08 PM 80.6 °F 84.6 °F 71.6 °F 74% 29.95 in 10.0 mi South 6.9 mph - N/A   Mostly Cloudy
3:28 PM 82.4 °F 87.2 °F 71.6 °F 70% 29.94 in 10.0 mi SSW 8.1 mph - N/A   Mostly Cloudy
3:58 PM 82.6 °F 87.6 °F 72.0 °F 70% 29.93 in 10.0 mi SW 3.5 mph - N/A   Scattered Clouds
4:13 PM 82.4 °F 87.2 °F 71.6 °F 70% 29.93 in 10.0 mi Variable 2.3 mph - N/A   Mostly Cloudy
4:18 PM 82.4 °F 87.2 °F 71.6 °F 70% 29.93 in 10.0 mi South 4.6 mph - N/A   Mostly Cloudy
4:58 PM 82.0 °F 86.7 °F 71.8 °F 71% 29.92 in 10.0 mi Variable 2.3 mph - N/A   Partly Cloudy
5:58 PM 81.9 °F 87.0 °F 73.0 °F 74% 29.92 in 10.0 mi South 4.6 mph - N/A   Partly Cloudy
6:58 PM 80.8 °F 85.4 °F 73.0 °F 77% 29.92 in 10.0 mi SSW 4.6 mph - N/A   Scattered Clouds
7:58 PM 79.5 °F - 73.4 °F 81% 29.92 in 10.0 mi SSW 5.8 mph - N/A   Mostly Cloudy
8:08 PM 78.8 °F - 73.4 °F 83% 29.93 in 10.0 mi SSW 5.8 mph - N/A   Mostly Cloudy
8:18 PM 78.8 °F - 73.4 °F 83% 29.93 in 10.0 mi SSW 5.8 mph - N/A   Mostly Cloudy
8:33 PM 78.8 °F - 73.4 °F 83% 29.94 in 10.0 mi SSW 4.6 mph - N/A   Mostly Cloudy
8:38 PM 78.8 °F - 73.4 °F 83% 29.94 in 10.0 mi SSW 4.6 mph - N/A   Scattered Clouds
8:58 PM 77.5 °F - 73.9 °F 89% 29.92 in 10.0 mi South 5.8 mph - N/A   Mostly Cloudy
9:58 PM 74.7 °F - 73.2 °F 95% 29.93 in 7.0 mi SW 3.5 mph - N/A   Mostly Cloudy
10:58 PM 73.6 °F - 72.7 °F 97% 29.93 in 7.0 mi Calm Calm - N/A   Scattered Clouds
11:14 PM 73.4 °F - 73.4 °F 100% 29.94 in 8.0 mi South 3.5 mph - N/A Rain Light Rain
11:15 PM 73.4 °F - 73.4 °F 100% 29.94 in 8.0 mi South 3.5 mph - N/A   Clear
11:35 PM 73.4 °F - 71.6 °F 94% 29.94 in 2.5 mi SSW 2.3 mph - N/A   Clear
11:40 PM 73.4 °F - 73.4 °F 100% 29.94 in 3.0 mi SSW 2.3 mph - N/A   Clear
11:45 PM 71.6 °F - 71.6 °F 100% 29.94 in 2.5 mi SSW 2.3 mph - N/A   Clear
11:55 PM 71.6 °F - 71.6 °F 100% 29.94 in 3.0 mi South 2.3 mph - N/A   Clear
11:58 PM 72.3 °F - 72.3 °F 100% 29.94 in 4.0 mi South 2.3 mph - 0.00 in   Clear